Погода в Вежарий-Юрте

Россия / Республика Ингушетия     43°35′45″N   44°34′36″E
темп.,
°C
ветер,
м/с
пор.,
м/с
влажн.,
%
обл.,
%
осадки,
мм/ч
давл.,
гПа
погр.,
м
15 мая, сб
сб1500:00+18ююз11840 0.0 101111
03:00+17ю11830 0.0 101111
06:00+19ююз22745 0.0 101246
09:00+24зсз22526 0.0 1012420
12:00+27с33565 0.0 1013985
15:00+27зсз235433 0.0 10121629
18:00+25ююз3367100 0.4 101280
21:00+19ю226697 0.7 101311
16 мая, вс
вс1600:00+18ююв227483 0.1 101111
03:00+17ю117613 0.1 101111
06:00+19юв11746 0.0 101033
09:00+23св23573 0.0 1010564
12:00+26всв45525 0.0 1008898
15:00+27всв33485 0.0 10061126
18:00+25всв23602 0.0 100563
21:00+20юв11565 0.1 100611
17 мая, пн
пн1700:00+19ююз216134 0.0 100511
03:00+17ю11595 0.0 100511
06:00+18ююв11535 0.0 100515
09:00+25св224112 0.0 1005384
12:00+28всв44410 0.0 1004706
15:00+28ссв2241100 0.0 10041064
18:00+25з4656100 0.0 1005115
21:00+17з3794100 1.8 1009216
18 мая, вт
вт1800:00+16ююз1191100 0.0 100813
03:00+16з41189100 0.0 1009640
06:00+15з3994100 0.8 1012572
09:00+17зсз4783100 1.5 1013706
12:00+18сз3476100 0.5 1013856
15:00+21зсз346175 0.6 10131248
18:00+18сз2275100 0.4 101320
21:00+18юз2276100 0.6 101519
19 мая, ср
ср1900:00+15ююз218576 0.0 101411
03:00+14юз11875 0.0 101511
06:00+16ююз11830 0.0 101653
09:00+21всв11635 0.0 1015772
12:00+24всв44540 0.0 10141256
15:00+25в44505 0.0 10131504
18:00+22в3563100 0.0 1013147
21:00+19вюв35590 0.0 101361